| time (UTC) | temp C | wind direction | speed KPH | gust KPH | rain 1hr cm | rain 24hr cm | rain mn cm | humidity % | barometer mb |
| 20260507165535 | 9 | 27 | 3.2 | 6.4 | 0.00 | 0.00 | 0.00 | 54 | 1019.8 |
| 20260507164533 | 8 | 34 | 3.2 | 6.4 | 0.00 | 0.00 | 0.00 | 56 | 1020.0 |
| 20260507163532 | 8 | 85 | 4.8 | 8.0 | 0.00 | 0.00 | 0.00 | 61 | 1019.8 |
| 20260507162531 | 8 | 89 | 6.4 | 9.7 | 0.00 | 0.00 | 0.00 | 59 | 1019.9 |
| 20260507161530 | 8 | 82 | 3.2 | 4.8 | 0.00 | 0.00 | 0.00 | 58 | 1019.9 |
| 20260507160528 | 8 | 141 | 4.8 | 6.4 | 0.00 | 0.00 | 0.00 | 56 | 1019.6 |
| 20260507155528 | 9 | 122 | 4.8 | 6.4 | 0.00 | 0.00 | 0.00 | 56 | 1019.9 |
| 20260507154526 | 10 | 268 | 4.8 | 8.0 | 0.00 | 0.00 | 0.00 | 55 | 1020.2 |
| 20260507153525 | 10 | 291 | 1.6 | 3.2 | 0.00 | 0.00 | 0.00 | 45 | 1020.1 |
| 20260507152524 | 11 | 269 | 3.2 | 6.4 | 0.00 | 0.00 | 0.00 | 44 | 1020.1 |
| 20260507151523 | 11 | 168 | 4.8 | 4.8 | 0.00 | 0.00 | 0.00 | 44 | 1020.1 |
| 20260507150542 | 11 | 228 | 1.6 | 3.2 | 0.00 | 0.00 | 0.00 | 43 | 1020.1 |
| 20260507145520 | 11 | 165 | 3.2 | 3.2 | 0.00 | 0.00 | 0.00 | 42 | 1020.1 |
| 20260507144539 | 11 | 186 | 3.2 | 3.2 | 0.00 | 0.00 | 0.00 | 42 | 1020.1 |
| 20260507143518 | 11 | 162 | 3.2 | 4.8 | 0.00 | 0.00 | 0.00 | 41 | 1019.9 |
| 20260507142516 | 11 | 178 | 4.8 | 8.0 | 0.00 | 0.00 | 0.00 | 40 | 1020.1 |
| 20260507141545 | 12 | 124 | 3.2 | 3.2 | 0.00 | 0.00 | 0.00 | 39 | 1020.1 |
| 20260507140544 | 12 | 169 | 3.2 | 4.8 | 0.00 | 0.00 | 0.00 | 38 | 1020.1 |
| 20260507135544 | 12 | 150 | 6.4 | 6.4 | 0.00 | 0.00 | 0.00 | 38 | 1020.1 |
| 20260507134602 | 12 | 209 | 6.4 | 9.7 | 0.00 | 0.00 | 0.00 | 37 | 1020.0 |
| 20260507133540 | 12 | 161 | 6.4 | 8.0 | 0.00 | 0.00 | 0.00 | 37 | 1019.9 |
| 20260507132539 | 12 | 161 | 6.4 | 8.0 | 0.00 | 0.00 | 0.00 | 36 | 1019.9 |
| 20260507131539 | 12 | 154 | 3.2 | 6.4 | 0.00 | 0.00 | 0.00 | 36 | 1020.0 |
| 20260507130537 | 12 | 172 | 4.8 | 9.7 | 0.00 | 0.00 | 0.00 | 35 | 1020.0 |
| 20260507125535 | 12 | 148 | 4.8 | 8.0 | 0.00 | 0.00 | 0.00 | 36 | 1020.1 |
| 20260507124555 | 12 | 156 | 6.4 | 8.0 | 0.00 | 0.00 | 0.00 | 36 | 1019.8 |
| 20260507123533 | 13 | 144 | 8.0 | 9.7 | 0.00 | 0.00 | 0.00 | 35 | 1019.6 |
| 20260507122531 | 13 | 159 | 4.8 | 6.4 | 0.00 | 0.00 | 0.00 | 34 | 1019.7 |
| 20260507121530 | 13 | 199 | 4.8 | 8.0 | 0.00 | 0.00 | 0.00 | 34 | 1019.7 |
| 20260507120529 | 13 | 189 | 3.2 | 6.4 | 0.00 | 0.00 | 0.00 | 34 | 1019.9 |
| 20260507115527 | 13 | 176 | 4.8 | 8.0 | 0.00 | 0.00 | 0.00 | 33 | 1019.8 |
| 20260507114526 | 13 | 149 | 3.2 | 6.4 | 0.00 | 0.00 | 0.00 | 34 | 1019.8 |
| 20260507113525 | 13 | 140 | 4.8 | 6.4 | 0.00 | 0.00 | 0.00 | 33 | 1019.8 |
| 20260507112523 | 14 | 168 | 4.8 | 8.0 | 0.00 | 0.00 | 0.00 | 32 | 1019.9 |
| 20260507111522 | 14 | 194 | 8.0 | 9.7 | 0.00 | 0.00 | 0.00 | 31 | 1019.7 |
| 20260507110521 | 14 | 163 | 6.4 | 9.7 | 0.00 | 0.00 | 0.00 | 32 | 1019.7 |
| 20260507105520 | 14 | 185 | 8.0 | 12.9 | 0.00 | 0.00 | 0.00 | 31 | 1019.5 |
| 20260507104538 | 14 | 163 | 3.2 | 6.4 | 0.00 | 0.00 | 0.00 | 32 | 1019.3 |
| 20260507103517 | 15 | 176 | 6.4 | 8.0 | 0.00 | 0.00 | 0.00 | 31 | 1019.3 |
| 20260507102516 | 15 | 194 | 4.8 | 9.7 | 0.00 | 0.00 | 0.00 | 30 | 1019.3 |
| 20260507101545 | 15 | 199 | 6.4 | 12.9 | 0.00 | 0.00 | 0.00 | 30 | 1019.1 |
| 20260507100604 | 15 | 165 | 6.4 | 8.0 | 0.00 | 0.00 | 0.00 | 30 | 1019.2 |
| 20260507095542 | 15 | 148 | 4.8 | 6.4 | 0.00 | 0.00 | 0.00 | 30 | 1019.1 |
| 20260507094541 | 15 | 195 | 8.0 | 9.7 | 0.00 | 0.00 | 0.00 | 30 | 1019.0 |
| 20260507093540 | 16 | 169 | 8.0 | 11.3 | 0.00 | 0.00 | 0.00 | 30 | 1018.9 |
| 20260507092539 | 16 | 160 | 4.8 | 6.4 | 0.00 | 0.00 | 0.00 | 30 | 1018.8 |
| 20260507091538 | 16 | 187 | 4.8 | 11.3 | 0.00 | 0.00 | 0.00 | 28 | 1018.6 |
| 20260507090536 | 16 | 171 | 6.4 | 9.7 | 0.00 | 0.00 | 0.00 | 29 | 1018.6 |
| 20260507085535 | 16 | 199 | 8.0 | 16.1 | 0.00 | 0.00 | 0.00 | 27 | 1018.3 |
| 20260507084533 | 17 | 212 | 8.0 | 12.9 | 0.00 | 0.00 | 0.00 | 29 | 1017.8 |
| 20260507083533 | 17 | 199 | 6.4 | 16.1 | 0.00 | 0.00 | 0.00 | 29 | 1017.6 |
| 20260507082531 | 17 | 241 | 14.5 | 24.1 | 0.00 | 0.00 | 0.00 | 28 | 1017.5 |
| 20260507081530 | 17 | 225 | 20.9 | 38.6 | 0.00 | 0.00 | 0.00 | 30 | 1016.8 |
| 20260507080549 | 18 | 212 | 8.0 | 14.5 | 0.00 | 0.00 | 0.00 | 34 | 1016.4 |
| 20260507075528 | 18 | 183 | 4.8 | 6.4 | 0.00 | 0.00 | 0.00 | 40 | 1016.0 |
| 20260507074526 | 18 | 242 | 6.4 | 14.5 | 0.00 | 0.00 | 0.00 | 37 | 1015.6 |
| 20260507073545 | 19 | 242 | 9.7 | 14.5 | 0.00 | 0.00 | 0.00 | 36 | 1015.3 |
| 20260507072524 | 20 | 239 | 8.0 | 11.3 | 0.00 | 0.00 | 0.00 | 40 | 1014.9 |
| 20260507071523 | 20 | 255 | 11.3 | 17.7 | 0.00 | 0.00 | 0.00 | 40 | 1014.8 |
| 20260507070521 | 20 | 247 | 9.7 | 9.7 | 0.00 | 0.00 | 0.00 | 40 | 1014.5 |
| 20260507065520 | 20 | 259 | 9.7 | 20.9 | 0.00 | 0.00 | 0.00 | 40 | 1014.1 |
| 20260507064518 | 20 | 243 | 11.3 | 17.7 | 0.00 | 0.00 | 0.00 | 39 | 1014.0 |
| 20260507063517 | 21 | 250 | 11.3 | 14.5 | 0.00 | 0.00 | 0.00 | 39 | 1013.6 |
| 20260507062546 | 21 | 258 | 6.4 | 8.0 | 0.00 | 0.00 | 0.00 | 45 | 1013.3 |
| 20260507061545 | 21 | 229 | 3.2 | 4.8 | 0.00 | 0.00 | 0.00 | 57 | 1013.2 |
| 20260507060543 | 21 | 157 | 4.8 | 6.4 | 0.00 | 0.00 | 0.00 | 59 | 1013.0 |
| 20260507055542 | 21 | 100 | 3.2 | 6.4 | 0.00 | 0.00 | 0.00 | 55 | 1012.8 |
| 20260507054540 | 22 | 127 | 3.2 | 6.4 | 0.00 | 0.00 | 0.00 | 54 | 1012.5 |
| 20260507053539 | 21 | 98 | 3.2 | 4.8 | 0.00 | 0.00 | 0.00 | 57 | 1012.7 |
| 20260507052558 | 21 | 141 | 6.4 | 9.7 | 0.00 | 0.00 | 0.00 | 57 | 1012.5 |
| 20260507051537 | 21 | 118 | 6.4 | 6.4 | 0.00 | 0.00 | 0.00 | 57 | 1012.3 |
| 20260507050536 | 21 | 110 | 8.0 | 11.3 | 0.00 | 0.00 | 0.00 | 58 | 1012.3 |
| 20260507045555 | 21 | 100 | 8.0 | 11.3 | 0.00 | 0.00 | 0.00 | 56 | 1012.2 |
| 20260507044533 | 21 | 106 | 4.8 | 9.7 | 0.00 | 0.00 | 0.00 | 57 | 1012.3 |
| 20260507043532 | 21 | 135 | 9.7 | 14.5 | 0.00 | 0.00 | 0.00 | 56 | 1012.4 |
| 20260507042530 | 22 | 121 | 9.7 | 14.5 | 0.00 | 0.00 | 0.00 | 48 | 1012.2 |
| 20260507041529 | 22 | 152 | 9.7 | 14.5 | 0.00 | 0.00 | 0.00 | 46 | 1012.2 |
| 20260507040528 | 22 | 154 | 6.4 | 8.0 | 0.00 | 0.00 | 0.00 | 48 | 1012.3 |
| 20260507035527 | 22 | 145 | 9.7 | 14.5 | 0.00 | 0.00 | 0.00 | 47 | 1012.3 |
| 20260507034525 | 22 | 138 | 9.7 | 12.9 | 0.00 | 0.00 | 0.00 | 48 | 1012.5 |
| 20260507033524 | 22 | 144 | 8.0 | 12.9 | 0.00 | 0.00 | 0.00 | 47 | 1012.5 |
| 20260507032523 | 22 | 173 | 8.0 | 9.7 | 0.00 | 0.00 | 0.00 | 42 | 1012.8 |
| 20260507031522 | 22 | 161 | 3.2 | 4.8 | 0.00 | 0.00 | 0.00 | 43 | 1012.9 |
| 20260507030521 | 22 | 17 | 1.6 | 3.2 | 0.00 | 0.00 | 0.00 | 43 | 1013.0 |
| 20260507025539 | 22 | 119 | 4.8 | 8.0 | 0.00 | 0.00 | 0.00 | 42 | 1013.3 |
| 20260507024519 | 22 | 335 | 3.2 | 4.8 | 0.00 | 0.00 | 0.00 | 41 | 1013.3 |
| 20260507023517 | 22 | 162 | 9.7 | 9.7 | 0.00 | 0.00 | 0.00 | 45 | 1013.3 |
| 20260507022516 | 21 | 148 | 3.2 | 3.2 | 0.00 | 0.00 | 0.00 | 44 | 1013.5 |
| 20260507021545 | 21 | 248 | 6.4 | 9.7 | 0.00 | 0.00 | 0.00 | 45 | 1013.7 |
| 20260507020543 | 21 | 222 | 4.8 | 6.4 | 0.00 | 0.00 | 0.00 | 46 | 1013.8 |
| 20260507015542 | 20 | 273 | 3.2 | 4.8 | 0.00 | 0.00 | 0.00 | 45 | 1013.8 |
| 20260507014601 | 21 | 254 | 4.8 | 4.8 | 0.00 | 0.00 | 0.00 | 45 | 1014.0 |
| 20260507013600 | 20 | 263 | 4.8 | 4.8 | 0.00 | 0.00 | 0.00 | 45 | 1014.1 |
| 20260507012538 | 20 | 241 | 4.8 | 8.0 | 0.00 | 0.00 | 0.00 | 45 | 1014.2 |
| 20260507011537 | 20 | 237 | 4.8 | 6.4 | 0.00 | 0.00 | 0.00 | 47 | 1014.5 |
| 20260507010535 | 20 | 236 | 3.2 | 6.4 | 0.00 | 0.00 | 0.00 | 46 | 1014.5 |
| 20260507005554 | 20 | 257 | 9.7 | 12.9 | 0.00 | 0.00 | 0.00 | 45 | 1014.6 |
| 20260507004553 | 21 | 251 | 9.7 | 16.1 | 0.00 | 0.00 | 0.00 | 41 | 1014.8 |
| 20260507003531 | 21 | 224 | 4.8 | 9.7 | 0.00 | 0.00 | 0.00 | 46 | 1014.9 |
| 20260507002530 | 20 | 266 | 8.0 | 16.1 | 0.00 | 0.00 | 0.00 | 50 | 1015.0 |
| 20260507001529 | 20 | 267 | 6.4 | 8.0 | 0.00 | 0.00 | 0.00 | 60 | 1015.0 |
| 20260507000528 | 20 | 267 | 3.2 | 9.7 | 0.00 | 0.00 | 0.00 | 59 | 1014.8 |
| 20260506235526 | 20 | 215 | 3.2 | 4.8 | 0.00 | 0.00 | 0.00 | 64 | 1015.0 |
| 20260506234526 | 19 | 226 | 3.2 | 6.4 | 0.00 | 0.00 | 0.00 | 65 | 1015.2 |
| 20260506233524 | 19 | 260 | 3.2 | 6.4 | 0.00 | 0.00 | 0.00 | 70 | 1015.1 |
| 20260506232522 | 18 | 263 | 6.4 | 8.0 | 0.00 | 0.00 | 0.00 | 71 | 1015.3 |
| 20260506231521 | 18 | 270 | 3.2 | 4.8 | 0.00 | 0.00 | 0.00 | 75 | 1015.2 |
| 20260506230540 | 17 | 256 | 3.2 | 6.4 | 0.00 | 0.00 | 0.00 | 83 | 1015.2 |
| 20260506225519 | 16 | 232 | 4.8 | 8.0 | 0.00 | 0.00 | 0.00 | 88 | 1015.3 |
| 20260506224538 | 16 | 317 | 4.8 | 11.3 | 0.00 | 0.00 | 0.00 | 88 | 1015.3 |
| 20260506223536 | 16 | 208 | 3.2 | 11.3 | 0.00 | 0.00 | 0.00 | 87 | 1015.4 |
| 20260506222545 | 16 | 256 | 8.0 | 9.7 | 0.00 | 0.00 | 0.00 | 90 | 1015.3 |
| 20260506221544 | 15 | 269 | 4.8 | 8.0 | 0.00 | 0.00 | 0.00 | 92 | 1015.1 |
| 20260506220603 | 15 | 307 | 3.2 | 6.4 | 0.00 | 0.00 | 0.00 | 94 | 1015.3 |
| 20260506215601 | 14 | 322 | 1.6 | 4.8 | 0.00 | 0.00 | 0.00 | 95 | 1015.3 |
| 20260506214540 | 14 | 296 | 3.2 | 6.4 | 0.00 | 0.00 | 0.00 | 95 | 1015.1 |
| 20260506213539 | 14 | 87 | 3.2 | 6.4 | 0.00 | 0.00 | 0.00 | 96 | 1015.2 |
| 20260506212538 | 14 | 261 | 4.8 | 4.8 | 0.00 | 0.00 | 0.00 | 96 | 1015.1 |
| 20260506211557 | 13 | 67 | 1.6 | 4.8 | 0.00 | 0.00 | 0.00 | 97 | 1015.0 |
| 20260506210536 | 13 | 70 | 3.2 | 4.8 | 0.00 | 0.00 | 0.00 | 97 | 1014.9 |
| 20260506205554 | 13 | 62 | 3.2 | 4.8 | 0.00 | 0.00 | 0.00 | 98 | 1014.8 |
| 20260506204533 | 13 | 88 | 3.2 | 4.8 | 0.00 | 0.00 | 0.00 | 98 | 1014.8 |
| 20260506203532 | 13 | 93 | 3.2 | 4.8 | 0.00 | 0.00 | 0.00 | 98 | 1014.6 |
| 20260506202530 | 13 | 0.0 | 3.2 | 0.00 | 0.00 | 0.00 | 98 | 1014.6 | |
| 20260506201529 | 13 | 59 | 3.2 | 4.8 | 0.00 | 0.00 | 0.00 | 98 | 1014.7 |
| 20260506200528 | 13 | 65 | 1.6 | 3.2 | 0.00 | 0.00 | 0.00 | 98 | 1014.6 |
| 20260506195546 | 13 | 112 | 1.6 | 4.8 | 0.00 | 0.00 | 0.00 | 99 | 1014.5 |
| 20260506194525 | 13 | 106 | 1.6 | 3.2 | 0.00 | 0.00 | 0.00 | 99 | 1014.7 |